• In Netherlands
  • List of Countries
  • For 7 days
  • Water Temperature
  • Satellite Maps
  • Weather Map
  • Weather Widgets
  • user-avatar
    Login

    Hourly Weather Bansko

    Today, 21 February, Tuesday

    Time Temperature Precipitation Wind Pressure Humidity
    00:00 0°C° 0 mm 1 mps 722 mmHg 76%
    01:00 0°C° 0 mm 1 mps 722 mmHg 74%
    02:00 -2°C° 0 mm 2 mps 722 mmHg 75%
    03:00 0°C° 0 mm 1 mps 721 mmHg 74%
    04:00 -1°C° 0 mm 1 mps 721 mmHg 73%
    05:00 -1°C° 0 mm 1 mps 721 mmHg 72%
    06:00 -1°C° 0 mm 1 mps 721 mmHg 70%
    07:00 0°C° 0 mm 1 mps 721 mmHg 68%
    08:00 +1°C° 0 mm 2 mps 721 mmHg 63%
    09:00 +3°C° 0 mm 2 mps 721 mmHg 59%
    10:00 +6°C° 0 mm 1 mps 721 mmHg 55%
    11:00 +8°C° 0 mm 1 mps 721 mmHg 51%
    12:00 +9°C° 0 mm 1 mps 720 mmHg 50%
    13:00 +9°C° 0 mm 1 mps 720 mmHg 49%
    14:00 +9°C° 0 mm 2 mps 720 mmHg 48%
    15:00 +9°C° 0 mm 1 mps 719 mmHg 53%
    16:00 +9°C° 0 mm 1 mps 719 mmHg 58%
    17:00 +8°C° 0 mm 1 mps 719 mmHg 63%
    18:00 +6°C° 0 mm 1 mps 718 mmHg 65%
    19:00 +4°C° 0 mm 1 mps 718 mmHg 66%
    20:00 +2°C° 0 mm 1 mps 718 mmHg 68%
    21:00 +2°C° 0 mm 1 mps 719 mmHg 66%
    22:00 +3°C° 0 mm 1 mps 719 mmHg 64%
    23:00 +3°C° 0 mm 1 mps 719 mmHg 62%

    Tomorrow, 22 February, Wednesday

    Time Temperature Precipitation Wind Pressure Humidity
    00:00 +3°C° 0 mm 1 mps 719 mmHg 62%
    01:00 +3°C° 0 mm 1 mps 720 mmHg 62%
    02:00 +4°C° 0 mm 1 mps 720 mmHg 63%
    03:00 +3°C° 0 mm 1 mps 720 mmHg 64%
    04:00 +3°C° 0 mm 1 mps 720 mmHg 65%
    05:00 +3°C° 0 mm 1 mps 720 mmHg 66%
    06:00 +4°C° 0 mm 1 mps 720 mmHg 67%
    07:00 +4°C° 0 mm 1 mps 720 mmHg 68%
    08:00 +4°C° 0 mm 1 mps 721 mmHg 69%
    09:00 +7°C° 0 mm 1 mps 721 mmHg 66%
    10:00 +9°C° 0 mm 1 mps 721 mmHg 63%
    11:00 +11°C° 0 mm 1 mps 722 mmHg 60%
    12:00 +12°C° 0 mm 1 mps 721 mmHg 59%
    13:00 +13°C° 0 mm 1 mps 721 mmHg 59%
    14:00 +13°C° 0 mm 1 mps 721 mmHg 58%
    15:00 +13°C° 0 mm 1 mps 721 mmHg 63%
    16:00 +12°C° 0 mm 1 mps 720 mmHg 67%
    17:00 +11°C° 0 mm 1 mps 720 mmHg 71%
    18:00 +9°C° 0 mm 1 mps 720 mmHg 73%
    19:00 +7°C° 0 mm 1 mps 720 mmHg 75%
    20:00 +5°C° 0 mm 1 mps 720 mmHg 77%
    21:00 +5°C° 0 mm 1 mps 720 mmHg 78%
    22:00 +5°C° 0 mm 1 mps 720 mmHg 78%
    23:00 +5°C° 0 mm 1 mps 720 mmHg 78%

    Day after tomorrow, 23 February, Thursday

    Time Temperature Precipitation Wind Pressure Humidity
    00:00 +5°C° 0 mm 1 mps 720 mmHg 79%
    01:00 +5°C° 0 mm 1 mps 720 mmHg 79%
    02:00 +5°C° 0 mm 1 mps 720 mmHg 80%
    03:00 +4°C° 0 mm 1 mps 720 mmHg 82%
    04:00 +4°C° 0 mm 1 mps 720 mmHg 83%
    05:00 +4°C° 0 mm 1 mps 720 mmHg 85%
    06:00 +4°C° 0 mm 1 mps 720 mmHg 84%
    07:00 +5°C° 0 mm 1 mps 720 mmHg 82%
    08:00 +5°C° 0 mm 1 mps 720 mmHg 80%
    09:00 +8°C° 0 mm 1 mps 721 mmHg 73%
    10:00 +10°C° 0 mm 1 mps 721 mmHg 67%
    11:00 +13°C° 0 mm 1 mps 721 mmHg 60%
    12:00 +14°C° 0 mm 1 mps 721 mmHg 58%
    13:00 +14°C° 0 mm 1 mps 720 mmHg 55%
    14:00 +15°C° 0 mm 1 mps 720 mmHg 53%
    15:00 +14°C° 0 mm 1 mps 720 mmHg 57%
    16:00 +14°C° 0 mm 1 mps 719 mmHg 61%
    17:00 +13°C° 0 mm 1 mps 719 mmHg 65%
    18:00 +11°C° 0 mm 1 mps 719 mmHg 69%
    19:00 +9°C° 0 mm 1 mps 719 mmHg 73%
    20:00 +7°C° 0 mm 1 mps 719 mmHg 77%
    21:00 +7°C° 0 mm 1 mps 719 mmHg 79%
    22:00 +5°C° 0 mm 2 mps 719 mmHg 81%
    23:00 +5°C° 0 mm 2 mps 719 mmHg 82%

    24 February, Friday

    Time Temperature Precipitation Wind Pressure Humidity
    00:00 +5°C° 0 mm 2 mps 719 mmHg 84%
    01:00 +4°C° 0 mm 2 mps 719 mmHg 85%
    02:00 +5°C° 0 mm 1 mps 719 mmHg 87%
    03:00 +5°C° 0 mm 1 mps 718 mmHg 88%
    04:00 +5°C° 0 mm 1 mps 718 mmHg 89%
    05:00 +5°C° 0 mm 1 mps 718 mmHg 90%
    06:00 +5°C° 0 mm 1 mps 718 mmHg 90%
    07:00 +5°C° 0 mm 1 mps 719 mmHg 89%
    08:00 +6°C° 0 mm 1 mps 719 mmHg 89%
    09:00 +8°C° 0 mm 1 mps 719 mmHg 80%
    10:00 +11°C° 0 mm 1 mps 719 mmHg 72%
    11:00 +13°C° 0 mm 2 mps 719 mmHg 64%
    12:00 +14°C° 0 mm 2 mps 719 mmHg 61%
    13:00 +15°C° 0 mm 2 mps 718 mmHg 57%
    14:00 +16°C° 0 mm 2 mps 718 mmHg 54%
    15:00 +15°C° 0 mm 2 mps 717 mmHg 58%
    16:00 +14°C° 0 mm 2 mps 717 mmHg 62%
    17:00 +14°C° 0 mm 2 mps 717 mmHg 66%
    18:00 +12°C° 0 mm 2 mps 717 mmHg 70%
    19:00 +10°C° 0 mm 2 mps 717 mmHg 74%
    20:00 +8°C° 0 mm 2 mps 717 mmHg 78%
    21:00 +8°C° 0 mm 2 mps 717 mmHg 79%
    22:00 +8°C° 0 mm 2 mps 717 mmHg 80%
    23:00 +8°C° 0 mm 2 mps 717 mmHg 81%

    25 February, Saturday

    Time Temperature Precipitation Wind Pressure Humidity
    00:00 +8°C° 0.1 mm 3 mps 716 mmHg 83%
    01:00 +8°C° 0.1 mm 3 mps 716 mmHg 84%
    02:00 +8°C° 0.1 mm 3 mps 716 mmHg 86%
    03:00 +8°C° 0.4 mm 3 mps 716 mmHg 88%
    04:00 +8°C° 0.4 mm 2 mps 716 mmHg 90%
    05:00 +8°C° 0.4 mm 2 mps 716 mmHg 91%
    06:00 +8°C° 0.3 mm 2 mps 717 mmHg 91%
    07:00 +7°C° 0.3 mm 2 mps 718 mmHg 91%
    08:00 +7°C° 0.3 mm 2 mps 719 mmHg 91%
    09:00 +7°C° 0.2 mm 3 mps 720 mmHg 86%
    10:00 +7°C° 0.2 mm 3 mps 721 mmHg 81%
    11:00 +8°C° 0.2 mm 3 mps 722 mmHg 77%
    12:00 +8°C° 0 mm 3 mps 722 mmHg 73%
    13:00 +8°C° 0 mm 3 mps 722 mmHg 70%
    14:00 +8°C° 0 mm 3 mps 722 mmHg 66%
    15:00 +8°C° 0 mm 3 mps 723 mmHg 66%
    16:00 +8°C° 0 mm 3 mps 723 mmHg 66%
    17:00 +7°C° 0 mm 2 mps 723 mmHg 66%
    18:00 +6°C° 0 mm 2 mps 724 mmHg 71%
    19:00 +4°C° 0 mm 2 mps 724 mmHg 76%
    20:00 +4°C° 0 mm 1 mps 725 mmHg 82%
    21:00 +3°C° 0 mm 1 mps 725 mmHg 81%
    22:00 +3°C° 0 mm 1 mps 726 mmHg 80%
    23:00 +3°C° 0 mm 1 mps 726 mmHg 79%

    26 February, Sunday

    Time Temperature Precipitation Wind Pressure Humidity
    00:00 +3°C° 0 mm 1 mps 726 mmHg 77%
    01:00 +2°C° 0 mm 0 mps 725 mmHg 75%
    02:00 +2°C° 0 mm 0 mps 725 mmHg 73%
    03:00 +3°C° 0 mm 1 mps 725 mmHg 72%
    04:00 +3°C° 0 mm 1 mps 725 mmHg 71%
    05:00 +3°C° 0 mm 1 mps 724 mmHg 70%
    06:00 +3°C° 0 mm 1 mps 724 mmHg 69%
    07:00 +4°C° 0 mm 1 mps 724 mmHg 68%
    08:00 +5°C° 0 mm 1 mps 724 mmHg 67%
    09:00 +7°C° 0 mm 1 mps 724 mmHg 62%
    10:00 +10°C° 0 mm 1 mps 724 mmHg 57%
    11:00 +12°C° 0 mm 1 mps 724 mmHg 52%
    12:00 +13°C° 0 mm 1 mps 724 mmHg 51%
    13:00 +14°C° 0 mm 1 mps 723 mmHg 51%
    14:00 +15°C° 0 mm 1 mps 723 mmHg 50%
    15:00 +14°C° 0 mm 1 mps 722 mmHg 55%
    16:00 +13°C° 0 mm 1 mps 722 mmHg 60%
    17:00 +12°C° 0 mm 1 mps 722 mmHg 65%
    18:00 +10°C° 0 mm 1 mps 722 mmHg 70%
    19:00 +8°C° 0 mm 1 mps 722 mmHg 75%
    20:00 +6°C° 0 mm 0 mps 722 mmHg 80%
    21:00 +6°C° 0 mm 1 mps 722 mmHg 80%
    22:00 +6°C° 0 mm 1 mps 722 mmHg 80%
    23:00 +6°C° 0 mm 1 mps 722 mmHg 80%
    Show more